Home   Weather   Irvine   Past weeks

Flag for USA Past Weather in Irvine, California, USA — Yesterday and Last 2 Weeks

Now
67 °F

Clear.


Feels Like: 67 °F
Forecast: 64 / 82 °F
Wind: 8 mph from Southwest

Location: John Wayne Airport-Orange County Airport

Current Time: Jun 27, 2017 at 1:38:14 am

Latest Report: Jun 27, 2017 at 12:53 am


Visibility: 10 mi

Pressure: 29.88 "Hg

Humidity: 87%

Dew Point: 63 °F

Location of IrvineLocation

Past Weather in Irvine — Graph

°F

Irvine Temperature Yesterday

Maximum temperature yesterday: 82 °F (at 4:53 pm)
Minimum temperature yesterday: 65 °F (at 1:53 am)
Average temperature yesterday: 73 °F

High & Low Weather Summary for the Past Weeks

 TemperatureHumidityPressure
High83 °F (Jun 16, 2:53 pm)100% (Jun 21, 2:53 am)30.04 "Hg (Jun 21, 2:53 am)
Low58 °F (Jun 13, 5:53 am)34% (Jun 12, 5:53 pm)29.69 "Hg (Jun 21, 5:53 pm)
Average69 °F74%29.86 "Hg
* Reported Jun 11 11:53 pm — Jun 26 11:53 pm, Irvine. Weather by CustomWeather, © 2017

Note: Actual official high and low records may vary slightly from our data, if they occured in-between our weather recording intervals... More about our weather records

Advertising

Irvine Weather History for the Previous 24 Hours

Scroll right to see more
 ConditionsComfort  
Time TempWeatherWind HumidityBarometerVisibility
11:53 pm
Mon, Jun 26
67 °FClear.3 mph87%29.89 "Hg10 mi
10:53 pm67 °FClear.5 mph85%29.89 "Hg10 mi
9:53 pm68 °FClear.9 mph84%29.89 "Hg10 mi
8:53 pm71 °FClear.7 mph73%29.88 "Hg10 mi
7:53 pm74 °FSunny.5 mph64%29.87 "Hg10 mi
6:53 pm79 °FSunny.6 mph42%29.87 "Hg10 mi
5:53 pm82 °FSunny.6 mph46%29.88 "Hg10 mi
4:53 pm82 °FSunny.9 mph49%29.89 "Hg10 mi
3:53 pm81 °FSunny.8 mph53%29.91 "Hg10 mi
2:53 pm80 °FSunny.12 mph49%29.92 "Hg10 mi
1:53 pm81 °FPassing clouds.9 mph51%29.92 "Hg10 mi
12:53 pm80 °FPassing clouds.15 mph51%29.92 "Hg10 mi
11:53 am76 °FPassing clouds.15 mph62%29.93 "Hg10 mi
10:53 am77 °FPassing clouds.13 mph60%29.92 "Hg10 mi
9:53 am80 °FPassing clouds.6 mph56%29.90 "Hg10 mi
8:53 am75 °FPassing clouds.No wind62%29.90 "Hg10 mi
7:53 am70 °FPassing clouds.No wind73%29.90 "Hg10 mi
6:53 am67 °FSunny.No wind81%29.89 "Hg10 mi
5:53 am65 °FPassing clouds.No wind87%29.89 "Hg10 mi
4:53 am65 °FClear.No wind87%29.88 "Hg10 mi
3:53 am65 °FClear.No wind91%29.88 "Hg10 mi
2:53 am65 °FClear.6 mph91%29.88 "Hg10 mi
1:53 am65 °FClear.3 mph91%29.88 "Hg10 mi
Weather by CustomWeather, © 2017

See weather overviewHow to use our weather pages